Regional Weather Roundup
Issued by NWS Upton, NY

Current Version | Previous Version | Text Only | Print | Product List | Glossary Off
Versions: 1 2 3 4 5 6 7 8 9 10 11 12 13 14 15 16 17 18 19 20 21 22 23 24 25 26 27 28 29 30 31 32 33 34 35 36 37 38 39 40 41 42 43 44 45 46 47 48 49 50
346 ASUS41 KOKX 230805 RWROKX Regional Weather Roundup National Weather Service New York NY 300 AM EST FRI FEB 23 2018 Note: "FAIR" indicates few or no clouds below 12,000 feet with no significant weather and/or obstructions to visibility. NYZ071-072-176-178-NJZ106-104-230900- New York City Metro Area CITY SKY/WX TMP DP RH WIND PRES REMARKS Central Park CLOUDY 36 32 85 VRB7 30.66F WCI 30 Bronx Bot Gard N/A 36 32 87 E6 30.65F WCI 31 Bronx Lehman C NOT AVBL LaGuardia Arpt CLOUDY 37 32 82 E12 30.64F WCI 29 Queens College NOT AVBL Kennedy Intl CLOUDY 36 34 92 NE12 30.65F WCI 28 Breezy Point NOT AVBL Brooklyn Coll NOT AVBL Staten Island NOT AVBL Newark/Liberty CLOUDY 37 33 85 NE9 30.65F WCI 30 Teterboro CLOUDY 37 32 82 E6 30.65F WCI 32 $$ NYZ177-179-078>081-230900- Long Island New York CITY SKY/WX TMP DP RH WIND PRES REMARKS Jones Beach NOT AVBL Wantagh NOT AVBL Hempstead N/A 36 34 93 NE2 30.68F Matinecock Pt NOT AVBL Farmingdale CLOUDY 35 32 88 NE7 30.65F WCI 29 MacArthur/ISP CLOUDY 35 33 92 NE9 30.63F WCI 28 Shirley CLOUDY 35 33 92 NE6 30.65F WCI 30 Mt Sinai Harb NOT AVBL Westhampton CLOUDY 35 32 88 NE9 30.67F WCI 28 East Hampton CLOUDY 34 30 86 NE3 30.66S Southold NOT AVBL Montauk N/A 36 33 89 NE6 30.67F WCI 31 $$ NYZ052-065-067-230900- Hudson Valley CITY SKY/WX TMP DP RH WIND PRES REMARKS White Plains MOCLDY 33 31 92 E3 30.62F Larchmont Harb NOT AVBL Croton On Huds NOT AVBL Somers NOT AVBL Brewster NOT AVBL Newburgh CLOUDY 30 30 100 VRB6 30.66F WCI 24 Montgomery CLOUDY 31 29 92 N5 30.64F WCI 26 Otisville NOT AVBL Warwick NOT AVBL Suffern NOT AVBL Poughkeepsie CLOUDY 30 28 92 N5 30.65F WCI 25 Albany FAIR 22 17 81 NW3 30.69F $$ NJZ001-105-106-008-010-013-015-019>022-104-230900- New Jersey CITY SKY/WX TMP DP RH WIND PRES REMARKS Newark/Liberty CLOUDY 37 33 85 NE9 30.65F WCI 30 Teterboro CLOUDY 37 32 82 E6 30.65F WCI 32 Caldwell CLOUDY 35 33 92 E8 30.65F WCI 29 Somerville CLOUDY 37 35 92 E3 30.62F Linden CLOUDY 37 32 81 E12 30.65F WCI 30 Perth Amboy NOT AVBL Sussex CLOUDY 33 31 92 N5 30.63F WCI 29 Andover N/A 33 32 96 VRB5 30.62F WCI 29 Trenton CLOUDY 38 35 89 E13 30.61F WCI 30 Millville CLOUDY 39 35 86 NE12 30.59F WCI 32 Atlantic City CLOUDY 41 37 86 NE12G23 30.60S Wrightstown CLOUDY 38 35 89 E8 30.58 WCI 32 Toms River CLOUDY 38 34 85 NE10 30.64S WCI 31 Belmar CLOUDY 37 33 85 NE10 30.64S WCI 30 $$ PAZ047>061-062-071-230900- Eastern Pennsylvania CITY SKY/WX TMP DP RH WIND PRES REMARKS Philadelphia CLOUDY 38 36 92 NE9 30.61 WCI 31 Allentown CLOUDY 37 32 82 NE8 30.63R WCI 31 Scranton CLOUDY 36 31 82 VRB5 30.57F WCI 32 $$ CTZ002-004>006-009-010-012-RIZ004-006-007-MAZ004-011-015-230900- Southern New England In CT CITY SKY/WX TMP DP RH WIND PRES REMARKS Bradley Intl CLOUDY 31 30 96 N7 30.68F WCI 24 Hartford CLOUDY 33 30 88 N8 30.68F WCI 26 Danbury CLOUDY 33 30 88 NE5 30.66F WCI 29 Wtrbury/Oxford CLOUDY 31 29 92 E5 30.64F WCI 26 Norwalk Harbor NOT AVBL Bridgeport CLOUDY 36 32 85 NE5 30.66F WCI 32 Meriden CLOUDY 33 30 88 NE6 30.67F WCI 28 New Haven CLOUDY 36 32 85 NE3 30.66F Chester CLOUDY 34 32 93 E3 30.65F Groton MOCLDY 34 30 85 NE5 30.67F WCI 30 Willimantic CLOUDY 35 32 88 N3 30.68S In RI CITY SKY/WX TMP DP RH WIND PRES REMARKS Providence CLOUDY 34 32 92 NE5 30.68F WCI 30 Block Island MOCLDY 34 31 88 NE9 30.66F WCI 27 Westerly FAIR 34 32 92 NE3 30.67F In MA CITY SKY/WX TMP DP RH WIND PRES REMARKS Boston CLOUDY 33 30 88 NW8 30.72R WCI 26 Worcester MOCLDY 28 24 85 N6 30.64S WCI 22 Westfield CLOUDY 30 29 96 NE6 30.68F WCI 24 Provincetown FAIR 34 28 79 NE6 30.70R WCI 29 Nantucket CLOUDY 36 31 82 NE10 30.65F WCI 28 $$ ANZ330-335-338-340-345-350-353-355-230900- Coastal Marine Observations STATION/POSITION TIME SKY/WX TEMP WIND PRES VSBY WAVE AIR SEA DIR/SP/G HT/PER (UTC) (F) (DEG/KT/KT) (MB) (MI) (FT/S) NY Harb Entrance 0750 37 41 50/ 16/ 21 1037.9 5/ 7 20 S Fire Island 0750 39 42 50/ 17/ 19 1037.4 6/ 7 23 SSW Montauk P 0750 37 43 50/ 16/ 17 1038.2 5/ 6 15 E Barnegat Li 0730 42 N/A 7/ 8 Hudson Canyon 0750 42 46 60/ 21/ 25 1035.3 8/ 8 Kings Point 0730 35 38 110/ 5/ 9 1039.1 Execution Rocks NOT AVBL Western LI Sound NOT AVBL Central LI Sound 0730 35 70/ 10/ 10 N/A 1 Robbins Reef 0736 37 60/ 12/ 14 1038.5 $$ >>>>>>>>>>>>>>>>>>>>>>>>>>>> KEY <<<<<<<<<<<<<<<<<<<<<<<<<<< > < > SKY/WX - Sky Condition/Present Weather < > TMP - Temperature in Fahrenheit < > DP - Dew Point in Fahrenheit < > RH - Relative Humidity in Percent < > WIND - Direction (from) and Speed in MPH < > PRES - Mean Sea Level Pressure (inches of Hg) < > WCI - Wind Chill Index < > VSB - Visibility in Miles < > HX - Heat Index < > TC - Temperature in Celsius < > VRB - Varibale Wind Direction < > < >>>>>>>>>>>>>>>>>>>>>>>>>>>> KEY <<<<<<<<<<<<<<<<<<<<<<<<<<<

USA.gov is the U.S. government's official web portal to all federal, state and local government web resources and services.